[Iaude] MPEC E165: 2024 EN3 [a=1.73,e=0.42,i=5.4,H=26.6]
    mpec at cfa.harvard.edu 
    mpec at cfa.harvard.edu
       
    Wed Mar 13 08:47:53 EDT 2024
    
    
  
M.P.E.C. 2024-E165                               Issued 2024 March 13, 12:46 UT
     The Minor Planet Electronic Circulars contain information on unusual
         minor planets, routine data on comets and natural satellites,
         and occasional editorial announcements.  They are published
    on behalf of Division F of the International Astronomical Union by the
          Minor Planet Center, Smithsonian Astrophysical Observatory,
                          Cambridge, MA 02138, U.S.A.
			  
             Prepared using the Tamkin Foundation Computer Network
                              MPC at CFA.HARVARD.EDU
            URL https://www.minorplanetcenter.net/    ISSN 1523-6714
                                    2024 EN3                                    
Observations:
     K24E03N*1C2024 03 12.25913810 09 56.106+38 44 01.21         20.35GVEE165G96
     K24E03N 1C2024 03 12.26480610 10 00.458+38 43 06.13         20.35GVEE165G96
     K24E03N 1C2024 03 12.27047110 10 04.825+38 42 10.98         19.92GVEE165G96
     K24E03N 1C2024 03 12.27614210 10 09.192+38 41 15.29         20.44GVEE165G96
     K24E03N mC2024 03 12.29922810 10 27.091+38 37 25.14         20.61GVEE165I52
     K24E03N mC2024 03 12.29983010 10 27.527+38 37 19.02         20.03GVEE165I52
     K24E03N mC2024 03 12.30043810 10 27.984+38 37 12.86         19.97GVEE165I52
     K24E03N mC2024 03 12.30103610 10 28.463+38 37 07.00         19.75GVEE165I52
     K24E03N mC2024 03 12.35885710 11 14.129+38 27 08.96         20.08GVEE165I52
     K24E03N mC2024 03 12.35945510 11 14.730+38 27 01.98         19.93GVEE165I52
     K24E03N mC2024 03 12.36005310 11 15.223+38 26 55.75         19.83GVEE165I52
     K24E03N mC2024 03 12.36066310 11 15.688+38 26 49.60         20.39GVEE165I52
     K24E03N KB2024 03 12.87955610 20 02.48 +36 52 51.8          19.5 GXEE165958
     K24E03N KB2024 03 12.88426810 20 06.67 +36 51 59.4          19.1 GXEE165958
     K24E03N KB2024 03 12.88897510 20 10.82 +36 51 07.9          19.6 GXEE165958
     K24E03N KC2024 03 12.89761410 20 14.39 +36 49 35.7          19.3 GVEE165104
     K24E03N KC2024 03 12.90484110 20 20.74 +36 48 12.0          20.0 GVEE165104
     K24E03N KC2024 03 12.90991110 20 24.23 +36 47 02.0          19.8 GXEE165595
     K24E03N KB2024 03 12.91600110 20 34.57 +36 45 54.7          19.3 GXEE165I93
     K24E03N KB2024 03 12.91815610 20 36.50 +36 45 29.3          20.2 GXEE165I93
     K24E03N KB2024 03 12.92030510 20 38.39 +36 45 05.2          19.5 GXEE165I93
     K24E03N KC2024 03 12.92286510 20 35.73 +36 44 29.9          19.9 GXEE165595
     K24E03N KC2024 03 12.93581810 20 47.26 +36 41 56.8          19.9 GXEE165595
     K24E03N KC2024 03 12.96556610 21 13.76 +36 36 03.0          20.0 GVEE165L01
     K24E03N KC2024 03 12.96704710 21 15.09 +36 35 44.9          19.8 GVEE165L01
     K24E03N KC2024 03 12.96852810 21 16.43 +36 35 26.7          19.7 GVEE165L01
     K24E03N KC2024 03 12.97001310 21 17.77 +36 35 08.7          19.8 GVEE165L01
     K24E03N KC2024 03 12.97149710 21 19.11 +36 34 50.4          19.8 GVEE165L01
     K24E03N KC2024 03 13.12678410 24 17.49 +36 03 41.2          20.3 GVEE165H21
     K24E03N KC2024 03 13.12957910 24 20.07 +36 03 07.6          20.3 GVEE165H21
     K24E03N KC2024 03 13.13237610 24 22.63 +36 02 33.5                VEE165H21
     K24E03N KC2024 03 13.13517210 24 25.22 +36 01 59.8                VEE165H21
     K24E03N KC2024 03 13.13741010 24 27.29 +36 01 32.8                VEE165H21
     K24E03N KB2024 03 13.15957 10 24 50.777+35 56 57.16         19.6 GVEE165734
     K24E03N KB2024 03 13.16332 10 24 54.300+35 56 11.62         19.6 GVEE165734
Observer details:
104 San Marcello Pistoiese.  Observers P. Bacci, M. Maestripieri.  Measurers
    P. Bacci, L. Tesi, G. Fagioli.  0.60-m F4 Reflector + CCD.
595 Farra d'Isonzo.  Observers R. Basana, F. Fabris, G. Panterotto, E.
    Pettarin.  Measurer E. Pettarin.  0.61-m f/4.5 reflector + CCD.
734 Farpoint Observatory, Eskridge.  Observers D. Cromer, G. Hug, D. Goodin,
    R. Valentine.  Measurer G. Hug.  0.69-m f/3.54 reflector + CMO.
958 Observatoire de Dax.  Observer P. Dupouy.  0.50-m f/4.5 Reflector + CMO.
G96 Mt. Lemmon Survey.  Observer D. Rankin.  Measurers T. Beuden, V. F.
    Carvajal, D. Fay, J. B. Fazekas, D. C. Fuls, A. R. Gibbs, A. D. Grauer, H.
    Groeller, J. K. Hogan, R. A. Kowalski, S. M. Larson, G. J. Leonard, D.
    Rankin, R. L. Seaman, F. C. Shelly, K. W. Wierzchos.  1.5-m reflector +
    10K CCD.
H21 Astronomical Research Observatory, Westfield.  Observer R. Holmes.
    Measurers T. Linder, R. Holmes, L. Horn.  0.76-m f/3.0 astrograph + CCD.
I52 Steward Observatory, Mt. Lemmon Station.  Observer H. Groeller.  Measurers
    T. Beuden, V. F. Carvajal, D. Fay, J. B. Fazekas, D. C. Fuls, A. R. Gibbs,
    A. D. Grauer, H. Groeller, J. K. Hogan, R. A. Kowalski, S. M. Larson, G.
    J. Leonard, D. Rankin, R. L. Seaman, F. C. Shelly, K. W. Wierzchos.  1.0-m
    prime focus + CCD.
I93 St Pardon de Conques.  Observer F. Losse.  0.40-m f/3.7 reflector + CCD.
L01 Visnjan Observatory, Tican.  Observer K. Korlevic.  1.0-m f/2.9 reflector
    + CCD.
Orbital elements:
2024 EN3                                                 Earth MOID = 0.0131 AU
Epoch 2024 Mar. 31.0 TT = JDT 2460400.5                 Veres                   
M   3.53058              (2000.0)            P               Q                  
n   0.43484604     Peri.  185.26631     -0.99829704     +0.05824855             
a   1.7254897      Node   358.06439     -0.04948986     -0.87454497             
e   0.4157526      Incl.    5.40702     -0.03088330     -0.48143349             
P   2.27           H   26.60          G   0.15           U   7                  
Residuals in seconds of arc
240312 G96  0.2-  0.1-    240312 958  0.9+  0.2+    240312 L01  0.4-  0.1+
240312 G96  0.2-  0.1-    240312 958  0.5+  0.4+    240312 L01  0.3-  0.1-
240312 G96  0.1-  0.1+    240312 958  0.1-  1.7+    240312 L01  0.3-  0.1+
240312 G96  0.1-  0.1+    240312 104  0.5+  0.4+    240312 L01  0.3-  0.1-
240312 I52  0.3+  0.1-    240312 104  0.0   0.1+    240313 H21  0.1-  0.2+
240312 I52  0.0   0.1-    240312 595  0.4+  0.5-    240313 H21  0.2-  0.3+
240312 I52  0.2-  0.1-    240312 I93  0.3+  0.1+    240313 H21  0.5-  0.1-
240312 I52  0.1-  0.0     240312 I93  0.5+  0.5-    240313 H21  0.4-  0.0
240312 I52  1.3-  0.2+    240312 I93  0.2+  0.1+    240313 H21  0.3-  0.1+
240312 I52  0.1+  0.4-    240312 595  0.2+  0.8-    240313 734  0.6-  0.5-
240312 I52  0.2+  0.3-    240312 595  0.1+  0.5-    240313 734  0.1+  0.3-
240312 I52  0.1-  0.0     240312 L01  0.4-  0.1+
Ephemeris:
2024 EN3                 a,e,i = 1.73, 0.42, 5                   q = 1.0081
Date    TT    R. A. (2000) Decl.     Delta      r    Elong.  Phase     V
2024 02 12    08 29 09.2 +48 39 03   0.1339  1.0963   142.5    33.2    23.8
...
2024 02 27    08 39 53.4 +49 19 32   0.07715 1.0439   132.6    44.3    22.8
...
2024 03 06    09 08 58.4 +47 02 47   0.04835 1.0248   131.5    46.5    21.8
...
2024 03 12    10 06 03.5 +39 23 51   0.02798 1.0151   139.3    39.6    20.4
2024 03 13    10 21 54.3 +36 30 20   0.02488 1.0139   142.7    36.5    20.1
2024 03 14    10 40 30.5 +32 37 13   0.02197 1.0128   147.2    32.1    19.7
...
2024 03 20    13 37 37.8 -23 03 31   0.01527 1.0086   146.5    33.0    18.9
...
2024 03 28    16 49 41.8 -52 17 29   0.03741 1.0097   107.1    70.9    22.0
...
2024 04 12    18 10 59.0 -54 51 01   0.08820 1.0321   107.3    68.0    23.8
M. P. C. Staff               (C) Copyright 2024 MPC           M.P.E.C. 2024-E165
    
    
More information about the Iaude
mailing list